Location: Chequamegon National Forest
(46.1070°N, 90.8420°W)
Time: 20:26:03
(UTC-06:00)

ISS - All Passes

Search period start: 10 February 2016 00:00
Search period end: 20 February 2016 00:00
Orbit: 399 x 408 km, 51.6° (Epoch: 10 February)

Date Brightness Start Highest point End Pass type
(mag) Time Alt. Az. Time Alt. Az. Time Alt. Az.
10 Feb - 16:01:28 10° SW 16:04:39 55° SSE 16:07:50 10° ENE daylight
10 Feb - 17:38:08 10° W 17:41:13 37° NNW 17:44:16 10° NE daylight
10 Feb - 19:15:15 10° WNW 19:18:11 30° N 19:21:07 10° ENE visible
10 Feb - 20:51:43 10° WNW 20:54:58 74° NNE 20:58:13 10° ESE visible
10 Feb - 22:28:44 10° W 22:31:07 19° SW 22:33:29 10° S night (unlit)
11 Feb - 15:09:09 10° SSW 15:12:05 31° SE 15:15:01 10° ENE daylight
11 Feb - 16:45:15 10° W 16:48:26 50° NNW 16:51:37 10° ENE daylight
11 Feb - 18:22:26 10° WNW 18:25:20 29° N 18:28:14 10° ENE visible
11 Feb - 19:59:04 10° WNW 20:02:14 49° NNE 20:05:24 10° E visible
11 Feb - 21:35:40 10° WNW 21:38:37 32° SW 21:41:33 10° SSE night (unlit)
12 Feb - 14:17:13 10° S 14:19:33 18° SE 14:21:54 10° E daylight
12 Feb - 15:52:26 10° WSW 15:55:41 76° NNW 15:58:56 10° ENE daylight
12 Feb - 17:29:32 10° WNW 17:32:28 30° N 17:35:25 10° ENE daylight
12 Feb - 19:06:23 10° NW 19:09:26 37° NNE 19:12:29 10° E visible
12 Feb - 20:42:49 10° WNW 20:46:00 57° SSW 20:49:11 10° SE visible
13 Feb - 13:26:31 10° SE 13:27:05 10° SE 13:27:40 10° ESE daylight
13 Feb - 14:59:45 10° SW 15:02:59 66° SSE 15:06:12 10° ENE daylight
13 Feb - 16:36:33 10° W 16:39:35 35° NNW 16:42:38 10° ENE daylight
13 Feb - 18:13:36 10° WNW 18:16:33 31° N 18:19:31 10° ENE visible
13 Feb - 19:50:02 10° WNW 19:53:18 85° NNE 19:56:33 10° ESE visible
13 Feb - 21:27:17 10° W 21:29:22 16° SW 21:31:27 10° S night (unlit)
14 Feb - 14:07:15 10° SSW 14:10:18 37° SE 14:13:21 10° ENE daylight
14 Feb - 15:43:34 10° W 15:46:43 45° NNW 15:49:52 10° ENE daylight
14 Feb - 17:20:44 10° WNW 17:23:38 29° N 17:26:32 10° ENE daylight
14 Feb - 18:57:18 10° WNW 19:00:30 55° NNE 19:03:42 10° E visible
14 Feb - 20:33:59 10° W 20:36:48 28° SW 20:39:37 10° SSE visible
15 Feb - 13:15:06 10° S 13:17:40 22° SE 13:20:15 10° E daylight
15 Feb - 14:50:38 10° WSW 14:53:52 66° NNW 14:57:07 10° ENE daylight
15 Feb - 16:27:45 10° WNW 16:30:41 30° N 16:33:37 10° ENE daylight
15 Feb - 18:04:32 10° WNW 18:07:38 40° NNE 18:10:44 10° E visible
15 Feb - 19:40:59 10° WNW 19:44:09 48° SW 19:47:17 10° SE visible
16 Feb - 12:23:39 10° SSE 12:25:06 12° SE 12:26:33 10° ESE daylight
16 Feb - 13:57:48 10° SW 14:01:04 77° SSE 14:04:19 10° ENE daylight
16 Feb - 15:34:42 10° WNW 15:37:43 33° N 15:40:44 10° ENE daylight
16 Feb - 17:11:42 10° WNW 17:14:41 32° N 17:17:40 10° ENE daylight
16 Feb - 18:48:08 10° WNW 18:51:23 84° SSW 18:54:37 10° ESE visible
16 Feb - 20:25:40 10° WSW 20:27:22 14° SW 20:29:04 10° SSW visible
17 Feb - 13:05:10 10° SW 13:08:16 44° SE 13:11:25 10° ENE daylight
17 Feb - 14:41:37 10° W 14:44:45 42° NNW 14:47:53 10° ENE daylight
17 Feb - 16:18:46 10° WNW 16:21:42 29° N 16:24:36 10° ENE daylight
17 Feb - 17:55:17 10° WNW 17:58:32 62° NNE 18:01:44 10° ESE visible
17 Feb - 19:32:05 10° W 19:34:45 24° SW 19:37:24 10° SSE visible
18 Feb - 12:12:48 10° SSW 12:15:33 25° SE 12:18:19 10° E daylight
18 Feb - 13:48:35 10° WSW 13:51:48 59° NNW 13:55:02 10° ENE daylight
18 Feb - 15:25:44 10° WNW 15:28:39 29° N 15:31:34 10° ENE daylight
18 Feb - 17:02:27 10° WNW 17:05:35 43° NNE 17:08:42 10° E daylight
18 Feb - 18:38:56 10° WNW 18:42:01 41° SW 18:45:06 10° SE visible
19 Feb - 11:20:58 10° S 11:22:53 15° SE 11:24:47 10° E daylight
19 Feb - 12:55:38 10° WSW 12:58:53 89° S 13:02:10 10° ENE daylight
19 Feb - 14:32:37 10° WNW 14:35:36 32° N 14:38:35 10° ENE daylight
19 Feb - 16:09:33 10° WNW 16:12:34 34° NNE 16:15:35 10° E daylight
19 Feb - 17:45:57 10° WNW 17:49:12 73° SSW 17:52:26 10° SE daylight
19 Feb - 19:23:58 10° WSW 19:25:07 11° SW 19:26:15 10° SSW visible
